ID Time Temp Humidity Light PM2.5 PM10 Voltage Extra Firmware Position Fcnt TTN version Gateways Distance RSSI LSNR Radiosettings
2026-05-07 16:32:29 14.625°C 61.5625% 3.33V v255 No position 9247 ttn.v3 - -78 12.5 867.7MHz, SF9BW125, 4/5CR
- -120 -9.5 867.7MHz, SF9BW125, 4/5CR
2026-05-07 16:15:39 14.625°C 61.5625% 3.34V v255 No position 9246 ttn.v3 - -81 13.25 868.1MHz, SF9BW125, 4/5CR
2026-05-07 15:58:50 14.625°C 61.5% 3.33V v255 No position 9245 ttn.v3 - -79 6.75 867.5MHz, SF9BW125, 4/5CR
2026-05-07 15:42:00 14.625°C 61.5625% 3.33V v255 No position 9244 ttn.v3 - -76 9 868.5MHz, SF9BW125, 4/5CR
2026-05-07 15:25:10 14.625°C 61.6875% 3.33V v255 No position 9243 ttn.v3 - -81 13.25 867.3MHz, SF9BW125, 4/5CR
- -120 -9.25 867.3MHz, SF9BW125, 4/5CR
- -124 -10.5 867.3MHz, SF9BW125, 4/5CR
2026-05-07 15:08:20 14.625°C 61.75% 3.33V v255 No position 9242 ttn.v3 - -77 11.25 868.3MHz, SF9BW125, 4/5CR
2026-05-07 14:51:30 14.625°C 61.75% 3.33V v255 No position 9241 ttn.v3 - -83 11.75 867.1MHz, SF9BW125, 4/5CR
- -121 -6.5 867.1MHz, SF9BW125, 4/5CR
- -120 -12 867.1MHz, SF9BW125, 4/5CR
2026-05-07 14:34:41 14.5625°C 61.8125% 3.34V v255 No position 9240 ttn.v3 - -79 11.75 868.1MHz, SF9BW125, 4/5CR
- -119 -11.75 868.1MHz, SF9BW125, 4/5CR
2026-05-07 14:17:51 14.5625°C 61.8125% 3.33V v255 No position 9239 ttn.v3 - -83 13.25 867.9MHz, SF9BW125, 4/5CR
- -120 -12.5 867.9MHz, SF9BW125, 4/5CR
2026-05-07 14:01:01 14.5625°C 61.75% 3.33V v255 No position 9238 ttn.v3 - -83 9.5 868.5MHz, SF9BW125, 4/5CR
2026-05-07 13:44:11 14.5625°C 61.9375% 3.33V v255 No position 9237 ttn.v3 - -79 11.75 867.7MHz, SF9BW125, 4/5CR
2026-05-07 13:27:22 14.5°C 62.0625% 3.33V v255 No position 9236 ttn.v3 - -77 11.75 868.3MHz, SF9BW125, 4/5CR
2026-05-07 13:10:32 14.5°C 62.125% 3.34V v255 No position 9235 ttn.v3 - -78 8.25 867.5MHz, SF9BW125, 4/5CR
2026-05-07 12:53:42 14.5°C 62.25% 3.33V v255 No position 9234 ttn.v3 - -85 13.25 868.1MHz, SF9BW125, 4/5CR
2026-05-07 12:36:52 14.4375°C 62.375% 3.33V v255 No position 9233 ttn.v3 - -72 10.75 867.3MHz, SF9BW125, 4/5CR
- -118 -8.5 867.3MHz, SF9BW125, 4/5CR
2026-05-07 12:20:03 14.4375°C 62.4375% 3.34V v255 No position 9232 ttn.v3 - -79 9.25 868.5MHz, SF9BW125, 4/5CR
2026-05-07 12:03:13 14.4375°C 62.375% 3.33V v255 No position 9231 ttn.v3 - -79 11.25 867.1MHz, SF9BW125, 4/5CR
- -122 -8.5 867.1MHz, SF9BW125, 4/5CR
- -120 -12.25 867.1MHz, SF9BW125, 4/5CR
2026-05-07 11:46:23 14.4375°C 62.5625% 3.33V v255 No position 9230 ttn.v3 - -79 10.75 868.3MHz, SF9BW125, 4/5CR
2026-05-07 11:29:33 14.4375°C 62.6875% 3.33V v255 No position 9229 ttn.v3 - -81 13 867.9MHz, SF9BW125, 4/5CR
- -120 -12.75 867.9MHz, SF9BW125, 4/5CR
2026-05-07 11:12:44 14.375°C 62.6875% 3.34V v255 No position 9228 ttn.v3 - -79 10.75 868.1MHz, SF9BW125, 4/5CR
2026-05-07 10:55:54 14.4375°C 62.75% 3.34V v255 No position 9227 ttn.v3 - -75 10.25 867.7MHz, SF9BW125, 4/5CR
- -120 -12.25 867.7MHz, SF9BW125, 4/5CR
2026-05-07 10:39:04 14.375°C 62.75% 3.34V v255 No position 9226 ttn.v3 - -79 9 868.5MHz, SF9BW125, 4/5CR
2026-05-07 10:22:15 14.375°C 62.8125% 3.33V v255 No position 9225 ttn.v3 - -77 7.75 867.5MHz, SF9BW125, 4/5CR
2026-05-07 10:05:25 14.375°C 62.875% 3.33V v255 No position 9224 ttn.v3 - -77 12.75 868.3MHz, SF9BW125, 4/5CR
2026-05-07 09:48:35 14.375°C 62.8125% 3.34V v255 No position 9223 ttn.v3 - -84 12 867.3MHz, SF9BW125, 4/5CR
- -118 -7.75 867.3MHz, SF9BW125, 4/5CR
2026-05-07 09:31:45 14.375°C 62.8125% 3.34V v255 No position 9222 ttn.v3 - -81 12.5 868.1MHz, SF9BW125, 4/5CR
2026-05-07 09:14:56 14.375°C 62.8125% 3.33V v255 No position 9221 ttn.v3 - -81 11 867.1MHz, SF9BW125, 4/5CR
- -121 -10.75 867.1MHz, SF9BW125, 4/5CR
2026-05-07 08:58:06 14.375°C 62.875% 3.33V v255 No position 9220 ttn.v3 - -77 8.25 868.5MHz, SF9BW125, 4/5CR
2026-05-07 08:41:16 14.375°C 63% 3.34V v255 No position 9219 ttn.v3 - -83 12.75 867.9MHz, SF9BW125, 4/5CR
- -121 -8.5 867.9MHz, SF9BW125, 4/5CR
2026-05-07 08:24:27 14.375°C 63% 3.33V v255 No position 9218 ttn.v3 - -81 11.25 868.3MHz, SF9BW125, 4/5CR
2026-05-07 08:07:37 14.375°C 62.9375% 3.33V v255 No position 9217 ttn.v3 - -78 12.25 867.7MHz, SF9BW125, 4/5CR
2026-05-07 07:53:04 14.3125°C 63.0625% 3.33V 79966997 v255 No position 9216 ttn.v3 - -77 11 868.1MHz, SF12BW125, 4/5CR
2026-05-07 07:34:12 14.3125°C 63% 3.33V v255 No position 9215 ttn.v3 - -75 8.75 867.5MHz, SF9BW125, 4/5CR
2026-05-07 07:17:22 14.3125°C 62.9375% 3.34V v255 No position 9214 ttn.v3 - -79 9 868.5MHz, SF9BW125, 4/5CR
2026-05-07 07:00:33 14.3125°C 62.9375% 3.33V v255 No position 9213 ttn.v3 - -73 11 867.3MHz, SF9BW125, 4/5CR
2026-05-07 06:43:43 14.25°C 62.875% 3.33V v255 No position 9212 ttn.v3 - -78 11.75 868.3MHz, SF9BW125, 4/5CR
2026-05-07 06:26:53 14.3125°C 62.875% 3.33V v255 No position 9211 ttn.v3 - -77 11.25 867.1MHz, SF9BW125, 4/5CR
- -121 -10 867.1MHz, SF9BW125, 4/5CR
2026-05-07 06:10:04 14.3125°C 62.875% 3.34V v255 No position 9210 ttn.v3 - -79 11.75 868.1MHz, SF9BW125, 4/5CR
- -122 -11.75 868.1MHz, SF9BW125, 4/5CR
2026-05-07 05:53:14 14.3125°C 62.875% 3.33V v255 No position 9209 ttn.v3 - -81 13 867.9MHz, SF9BW125, 4/5CR
- -120 -11 867.9MHz, SF9BW125, 4/5CR
- -122 -12.25 867.9MHz, SF9BW125, 4/5CR
2026-05-07 05:36:24 14.3125°C 62.875% 3.34V v255 No position 9208 ttn.v3 - -75 8.75 868.5MHz, SF9BW125, 4/5CR
2026-05-07 05:19:35 14.3125°C 62.8125% 3.34V v255 No position 9207 ttn.v3 - -77 11 867.7MHz, SF9BW125, 4/5CR
- -123 -9.5 867.7MHz, SF9BW125, 4/5CR
- -120 -14 867.7MHz, SF9BW125, 4/5CR
2026-05-07 05:02:45 14.3125°C 62.8125% 3.33V v255 No position 9206 ttn.v3 - -79 11.25 868.3MHz, SF9BW125, 4/5CR
2026-05-07 04:45:55 14.3125°C 62.75% 3.34V v255 No position 9205 ttn.v3 - -79 8.75 867.5MHz, SF9BW125, 4/5CR
2026-05-07 04:29:05 14.375°C 62.75% 3.33V v255 No position 9204 ttn.v3 - -81 11 868.1MHz, SF9BW125, 4/5CR
2026-05-07 04:12:16 14.3125°C 62.75% 3.33V v255 No position 9203 ttn.v3 - -79 12.25 867.3MHz, SF9BW125, 4/5CR
- -120 -8.75 867.3MHz, SF9BW125, 4/5CR
- -125 -11 867.3MHz, SF9BW125, 4/5CR
2026-05-07 03:55:26 14.375°C 62.6875% 3.33V v255 No position 9202 ttn.v3 - -79 9 868.5MHz, SF9BW125, 4/5CR
2026-05-07 03:38:36 14.375°C 62.6875% 3.34V v255 No position 9201 ttn.v3 - -81 13 867.1MHz, SF9BW125, 4/5CR
- -121 -9.25 867.1MHz, SF9BW125, 4/5CR
- -123 -9.5 867.1MHz, SF9BW125, 4/5CR
2026-05-07 03:21:47 14.375°C 62.6875% 3.34V v255 No position 9200 ttn.v3 - -79 11 868.3MHz, SF9BW125, 4/5CR
2026-05-07 03:04:57 14.375°C 62.6875% 3.33V v255 No position 9199 ttn.v3 - -79 12.5 867.9MHz, SF9BW125, 4/5CR
- -121 -9.25 867.9MHz, SF9BW125, 4/5CR
2026-05-07 02:48:07 14.4375°C 62.625% 3.34V v255 No position 9198 ttn.v3 - -89 12.25 868.1MHz, SF9BW125, 4/5CR
2026-05-07 02:31:18 14.4375°C 62.6875% 3.33V v255 No position 9197 ttn.v3 - -79 11.75 867.7MHz, SF9BW125, 4/5CR
- -119 -13 867.7MHz, SF9BW125, 4/5CR
2026-05-07 02:14:28 14.4375°C 62.6875% 3.33V v255 No position 9196 ttn.v3 - -83 9.25 868.5MHz, SF9BW125, 4/5CR
2026-05-07 01:57:38 14.4375°C 62.625% 3.34V v255 No position 9195 ttn.v3 - -81 9.25 867.5MHz, SF9BW125, 4/5CR
2026-05-07 01:40:48 14.5°C 62.625% 3.34V v255 No position 9194 ttn.v3 - -77 12 868.3MHz, SF9BW125, 4/5CR
2026-05-07 01:23:59 14.5°C 62.5% 3.33V v255 No position 9193 ttn.v3 - -79 11.5 867.3MHz, SF9BW125, 4/5CR
- -120 -9 867.3MHz, SF9BW125, 4/5CR
- -127 -13.5 867.3MHz, SF9BW125, 4/5CR
2026-05-07 01:07:09 14.5°C 62.5% 3.34V v255 No position 9192 ttn.v3 - -83 13.5 868.1MHz, SF9BW125, 4/5CR
2026-05-07 00:50:19 14.5°C 62.5% 3.34V v255 No position 9191 ttn.v3 - -83 11.75 867.1MHz, SF9BW125, 4/5CR
- -121 -8.75 867.1MHz, SF9BW125, 4/5CR
- -124 -10.25 867.1MHz, SF9BW125, 4/5CR
2026-05-07 00:33:29 14.5625°C 62.5625% 3.34V v255 No position 9190 ttn.v3 - -78 8.75 868.5MHz, SF9BW125, 4/5CR
2026-05-07 00:16:40 14.5625°C 62.5625% 3.33V v255 No position 9189 ttn.v3 - -83 13.5 867.9MHz, SF9BW125, 4/5CR
- -124 -9.75 867.9MHz, SF9BW125, 4/5CR
- -121 -12.75 867.9MHz, SF9BW125, 4/5CR
2026-05-06 23:59:50 14.5625°C 62.625% 3.34V v255 No position 9188 ttn.v3 - -81 11.5 868.3MHz, SF9BW125, 4/5CR
2026-05-06 23:43:00 14.625°C 62.5% 3.33V v255 No position 9187 ttn.v3 - -79 12.5 867.7MHz, SF9BW125, 4/5CR
- -124 -11.25 867.7MHz, SF9BW125, 4/5CR
- -121 -13.75 867.7MHz, SF9BW125, 4/5CR
2026-05-06 23:26:10 14.625°C 62.5% 3.34V v255 No position 9186 ttn.v3 - -78 11.5 868.1MHz, SF9BW125, 4/5CR
2026-05-06 23:09:20 14.625°C 62.375% 3.33V v255 No position 9185 ttn.v3 - -75 8.5 867.5MHz, SF9BW125, 4/5CR
2026-05-06 22:52:31 14.625°C 62.375% 3.33V v255 No position 9184 ttn.v3 - -78 8 868.5MHz, SF9BW125, 4/5CR
2026-05-06 22:35:41 14.625°C 62.375% 3.34V v255 No position 9183 ttn.v3 - -73 11.25 867.3MHz, SF9BW125, 4/5CR
- -120 -11.25 867.3MHz, SF9BW125, 4/5CR
- -126 -15 867.3MHz, SF9BW125, 4/5CR
2026-05-06 22:18:51 14.625°C 62.3125% 3.33V v255 No position 9182 ttn.v3 - -79 12 868.3MHz, SF9BW125, 4/5CR
2026-05-06 22:02:01 14.625°C 62.3125% 3.33V v255 No position 9181 ttn.v3 - -76 12 867.1MHz, SF9BW125, 4/5CR
- -123 -7.25 867.1MHz, SF9BW125, 4/5CR
- -119 -10 867.1MHz, SF9BW125, 4/5CR
2026-05-06 21:45:11 14.625°C 62.25% 3.34V v255 No position 9180 ttn.v3 - -79 12.75 868.1MHz, SF9BW125, 4/5CR
2026-05-06 21:28:22 14.625°C 62.25% 3.33V v255 No position 9179 ttn.v3 - -79 11.75 867.9MHz, SF9BW125, 4/5CR
- -121 -8 867.9MHz, SF9BW125, 4/5CR
- -121 -10.75 867.9MHz, SF9BW125, 4/5CR
2026-05-06 21:11:32 14.6875°C 62.1875% 3.33V v255 No position 9178 ttn.v3 - -79 8.75 868.5MHz, SF9BW125, 4/5CR
2026-05-06 20:54:42 14.625°C 62.1875% 3.34V v255 No position 9177 ttn.v3 - -81 11.75 867.7MHz, SF9BW125, 4/5CR
2026-05-06 20:37:52 14.6875°C 62.125% 3.34V v255 No position 9176 ttn.v3 - -76 11.5 868.3MHz, SF9BW125, 4/5CR
2026-05-06 20:21:02 14.625°C 62% 3.33V v255 No position 9175 ttn.v3 - -77 8.5 867.5MHz, SF9BW125, 4/5CR
2026-05-06 20:04:13 14.6875°C 61.875% 3.33V v255 No position 9174 ttn.v3 - -81 11.75 868.1MHz, SF9BW125, 4/5CR
- -121 -10.25 868.1MHz, SF9BW125, 4/5CR
2026-05-06 19:47:23 14.6875°C 61.8125% 3.34V v255 No position 9173 ttn.v3 - -79 12.75 867.3MHz, SF9BW125, 4/5CR
- -119 -9.25 867.3MHz, SF9BW125, 4/5CR
2026-05-06 19:30:33 14.6875°C 61.75% 3.33V v255 No position 9172 ttn.v3 - -77 8.5 868.5MHz, SF9BW125, 4/5CR
2026-05-06 19:13:43 14.6875°C 61.5625% 3.33V v255 No position 9171 ttn.v3 - -77 11.25 867.1MHz, SF9BW125, 4/5CR
- -123 -8.5 867.1MHz, SF9BW125, 4/5CR
- -121 -10.25 867.1MHz, SF9BW125, 4/5CR
2026-05-06 18:56:53 14.6875°C 61.625% 3.33V v255 No position 9170 ttn.v3 - -78 10.75 868.3MHz, SF9BW125, 4/5CR
2026-05-06 18:40:04 14.6875°C 61.75% 3.33V v255 No position 9169 ttn.v3 - -79 12.25 867.9MHz, SF9BW125, 4/5CR
- -121 -6.5 867.9MHz, SF9BW125, 4/5CR
- -123 -10.25 867.9MHz, SF9BW125, 4/5CR
2026-05-06 18:23:14 14.6875°C 61.75% 3.33V v255 No position 9168 ttn.v3 - -81 11 868.1MHz, SF9BW125, 4/5CR
2026-05-06 18:06:24 14.6875°C 61.6875% 3.33V v255 No position 9167 ttn.v3 - -79 11.75 867.7MHz, SF9BW125, 4/5CR
2026-05-06 17:49:34 14.6875°C 61.625% 3.33V v255 No position 9166 ttn.v3 - -79 9.25 868.5MHz, SF9BW125, 4/5CR
2026-05-06 17:32:45 14.6875°C 61.5% 3.33V v255 No position 9165 ttn.v3 - -77 7.75 867.5MHz, SF9BW125, 4/5CR
2026-05-06 17:15:55 14.625°C 61.375% 3.33V v255 No position 9164 ttn.v3 - -75 11.25 868.3MHz, SF9BW125, 4/5CR
2026-05-06 16:59:05 14.625°C 61.25% 3.33V v255 No position 9163 ttn.v3 - -75 11.75 867.3MHz, SF9BW125, 4/5CR
- -120 -6.75 867.3MHz, SF9BW125, 4/5CR
2026-05-06 16:42:15 14.625°C 61.3125% 3.33V v255 No position 9162 ttn.v3 - -81 12.5 868.1MHz, SF9BW125, 4/5CR
- -120 -12.75 868.1MHz, SF9BW125, 4/5CR
2026-05-06 16:25:25 14.625°C 61.0625% 3.34V v255 No position 9161 ttn.v3 - -81 11.25 867.1MHz, SF9BW125, 4/5CR
- -121 -9.75 867.1MHz, SF9BW125, 4/5CR
- -124 -14.25 867.1MHz, SF9BW125, 4/5CR
2026-05-06 16:08:36 14.625°C 61% 3.33V v255 No position 9160 ttn.v3 - -78 8.5 868.5MHz, SF9BW125, 4/5CR
2026-05-06 15:51:46 14.625°C 61% 3.34V v255 No position 9159 ttn.v3 - -83 11.75 867.9MHz, SF9BW125, 4/5CR
2026-05-06 15:34:56 14.625°C 61.0625% 3.33V v255 No position 9158 ttn.v3 - -83 13.25 868.3MHz, SF9BW125, 4/5CR
2026-05-06 15:18:07 14.625°C 61.125% 3.33V v255 No position 9157 ttn.v3 - -81 13.5 867.7MHz, SF9BW125, 4/5CR
- -120 -10.5 867.7MHz, SF9BW125, 4/5CR
2026-05-06 15:01:17 14.625°C 61.1875% 3.33V v255 No position 9156 ttn.v3 - -81 13.25 868.1MHz, SF9BW125, 4/5CR
- -121 -12.25 868.1MHz, SF9BW125, 4/5CR
2026-05-06 14:44:27 14.625°C 61.375% 3.33V v255 No position 9155 ttn.v3 - -81 9 867.5MHz, SF9BW125, 4/5CR
2026-05-06 14:27:37 14.625°C 61.375% 3.33V v255 No position 9154 ttn.v3 - -78 8.75 868.5MHz, SF9BW125, 4/5CR
2026-05-06 14:10:48 14.625°C 61.25% 3.34V v255 No position 9153 ttn.v3 - -79 10.5 867.3MHz, SF9BW125, 4/5CR
2026-05-06 13:53:58 14.625°C 61.3125% 3.33V v255 No position 9152 ttn.v3 - -81 12.75 868.3MHz, SF9BW125, 4/5CR
2026-05-06 13:37:08 14.625°C 61.4375% 3.33V v255 No position 9151 ttn.v3 - -84 12.25 867.1MHz, SF9BW125, 4/5CR
- -123 -10.75 867.1MHz, SF9BW125, 4/5CR
- -121 -14.25 867.1MHz, SF9BW125, 4/5CR
2026-05-06 13:20:18 14.6875°C 61.9375% 3.34V v255 No position 9150 ttn.v3 - -81 14 868.1MHz, SF9BW125, 4/5CR
2026-05-06 13:03:28 14.6875°C 62.5% 3.33V v255 No position 9149 ttn.v3 - -79 11.25 867.9MHz, SF9BW125, 4/5CR
- -121 -7.5 867.9MHz, SF9BW125, 4/5CR
- -121 -8.25 867.9MHz, SF9BW125, 4/5CR
2026-05-06 12:46:39 14.625°C 62.6875% 3.33V v255 No position 9148 ttn.v3 - -79 8.75 868.5MHz, SF9BW125, 4/5CR
2026-05-06 12:29:49 14.625°C 62.625% 3.33V v255 No position 9147 ttn.v3 - -83 12.75 867.7MHz, SF9BW125, 4/5CR
2026-05-06 12:12:59 14.625°C 62.6875% 3.33V v255 No position 9146 ttn.v3 - -82 11 868.3MHz, SF9BW125, 4/5CR
2026-05-06 11:56:09 14.625°C 62.8125% 3.33V v255 No position 9145 ttn.v3 - -83 8.5 867.5MHz, SF9BW125, 4/5CR
2026-05-06 11:39:19 14.6875°C 63.0625% 3.33V v255 No position 9144 ttn.v3 - -81 11.25 868.1MHz, SF9BW125, 4/5CR
2026-05-06 11:22:30 14.625°C 62.875% 3.33V v255 No position 9143 ttn.v3 - -75 11 867.3MHz, SF9BW125, 4/5CR
2026-05-06 11:05:40 14.625°C 63.25% 3.33V v255 No position 9142 ttn.v3 - -81 9 868.5MHz, SF9BW125, 4/5CR
2026-05-06 10:48:50 14.625°C 63.6875% 3.33V v255 No position 9141 ttn.v3 - -81 10.5 867.1MHz, SF9BW125, 4/5CR
- -121 -8.5 867.1MHz, SF9BW125, 4/5CR
2026-05-06 10:32:00 14.625°C 64.1875% 3.33V v255 No position 9140 ttn.v3 - -83 11.5 868.3MHz, SF9BW125, 4/5CR
2026-05-06 10:15:10 14.625°C 64.375% 3.33V v255 No position 9139 ttn.v3 - -81 13.25 867.9MHz, SF9BW125, 4/5CR
2026-05-06 09:58:21 14.625°C 64.75% 3.33V v255 No position 9138 ttn.v3 - -85 8.75 868.1MHz, SF9BW125, 4/5CR
2026-05-06 09:41:31 14.625°C 65% 3.33V v255 No position 9137 ttn.v3 - -87 12.75 867.7MHz, SF9BW125, 4/5CR
2026-05-06 09:24:41 14.625°C 65.25% 3.33V v255 No position 9136 ttn.v3 - -77 8 868.5MHz, SF9BW125, 4/5CR
2026-05-06 09:07:51 14.625°C 65.25% 3.33V v255 No position 9135 ttn.v3 - -81 7.75 867.5MHz, SF9BW125, 4/5CR
2026-05-06 08:51:01 14.625°C 65.3125% 3.34V v255 No position 9134 ttn.v3 - -77 10.75 868.3MHz, SF9BW125, 4/5CR
2026-05-06 08:34:12 14.625°C 65.3125% 3.33V v255 No position 9133 ttn.v3 - -85 11.25 867.3MHz, SF9BW125, 4/5CR
- -119 -11 867.3MHz, SF9BW125, 4/5CR
2026-05-06 08:17:22 14.625°C 65.3125% 3.33V v255 No position 9132 ttn.v3 - -81 11.5 868.1MHz, SF9BW125, 4/5CR
2026-05-06 08:00:32 14.625°C 65.3125% 3.33V v255 No position 9131 ttn.v3 - -79 11.75 867.1MHz, SF9BW125, 4/5CR
- -120 -8 867.1MHz, SF9BW125, 4/5CR
2026-05-06 07:43:42 14.625°C 65.25% 3.34V v255 No position 9130 ttn.v3 - -81 9.25 868.5MHz, SF9BW125, 4/5CR
2026-05-06 07:26:52 14.625°C 65.3125% 3.34V v255 No position 9129 ttn.v3 - -83 12.75 867.9MHz, SF9BW125, 4/5CR
- -121 -10.75 867.9MHz, SF9BW125, 4/5CR
- -124 -10.75 867.9MHz, SF9BW125, 4/5CR
2026-05-06 07:10:03 14.625°C 65.3125% 3.34V v255 No position 9128 ttn.v3 - -81 12.75 868.3MHz, SF9BW125, 4/5CR
2026-05-06 06:53:13 14.625°C 65.25% 3.34V v255 No position 9127 ttn.v3 - -78 11.75 867.7MHz, SF9BW125, 4/5CR
- -120 -10.5 867.7MHz, SF9BW125, 4/5CR
2026-05-06 06:36:23 14.6875°C 65.25% 3.33V v255 No position 9126 ttn.v3 - -85 12.5 868.1MHz, SF9BW125, 4/5CR
- -122 -12 868.1MHz, SF9BW125, 4/5CR
2026-05-06 06:19:33 14.6875°C 65.3125% 3.33V v255 No position 9125 ttn.v3 - -81 9.25 867.5MHz, SF9BW125, 4/5CR
2026-05-06 06:02:44 14.6875°C 65.25% 3.33V v255 No position 9124 ttn.v3 - -81 9.5 868.5MHz, SF9BW125, 4/5CR
2026-05-06 05:45:54 14.6875°C 65.25% 3.33V v255 No position 9123 ttn.v3 - -83 12.5 867.3MHz, SF9BW125, 4/5CR
- -120 -9.75 867.3MHz, SF9BW125, 4/5CR
- -127 -13.5 867.3MHz, SF9BW125, 4/5CR
2026-05-06 05:29:04 14.6875°C 65.25% 3.33V v255 No position 9122 ttn.v3 - -83 12.5 868.3MHz, SF9BW125, 4/5CR
2026-05-06 05:12:14 14.6875°C 65.125% 3.33V v255 No position 9121 ttn.v3 - -79 10.25 867.1MHz, SF9BW125, 4/5CR
- -119 -11 867.1MHz, SF9BW125, 4/5CR
2026-05-06 04:57:41 14.6875°C 65.3125% 3.33V 79966997 v255 No position 9120 ttn.v3 - -76 10.5 868.1MHz, SF12BW125, 4/5CR
- -120 -16 868.1MHz, SF12BW125, 4/5CR
- -123 -16.5 868.1MHz, SF12BW125, 4/5CR
- -124 -17.75 868.1MHz, SF12BW125, 4/5CR
2026-05-06 04:38:49 14.6875°C 65.1875% 3.33V v255 No position 9119 ttn.v3 - -79 11.5 867.9MHz, SF9BW125, 4/5CR
- -121 -8.75 867.9MHz, SF9BW125, 4/5CR
- -121 -10.75 867.9MHz, SF9BW125, 4/5CR
2026-05-06 04:21:59 14.6875°C 65.125% 3.33V v255 No position 9118 ttn.v3 - -81 8.25 868.5MHz, SF9BW125, 4/5CR
2026-05-06 04:05:09 14.6875°C 65% 3.33V v255 No position 9117 ttn.v3 - -76 11.5 867.7MHz, SF9BW125, 4/5CR
- -123 -10.5 867.7MHz, SF9BW125, 4/5CR
2026-05-06 03:48:19 14.6875°C 64.9375% 3.33V v255 No position 9116 ttn.v3 - -87 11.5 868.3MHz, SF9BW125, 4/5CR
2026-05-06 03:31:30 14.6875°C 64.875% 3.33V v255 No position 9115 ttn.v3 - -75 9 867.5MHz, SF9BW125, 4/5CR
2026-05-06 03:14:40 14.75°C 64.8125% 3.33V v255 No position 9114 ttn.v3 - -79 11.25 868.1MHz, SF9BW125, 4/5CR
2026-05-06 02:57:50 14.75°C 64.9375% 3.33V v255 No position 9113 ttn.v3 - -83 13.25 867.3MHz, SF9BW125, 4/5CR
- -121 -11 867.3MHz, SF9BW125, 4/5CR
- -126 -13.5 867.3MHz, SF9BW125, 4/5CR
2026-05-06 02:41:00 14.75°C 64.875% 3.33V v255 No position 9112 ttn.v3 - -78 9 868.5MHz, SF9BW125, 4/5CR
2026-05-06 02:24:10 14.75°C 65.0625% 3.33V v255 No position 9111 ttn.v3 - -87 11.75 867.1MHz, SF9BW125, 4/5CR
- -121 -8.25 867.1MHz, SF9BW125, 4/5CR
- -126 -11 867.1MHz, SF9BW125, 4/5CR
2026-05-06 02:07:20 14.75°C 65% 3.34V v255 No position 9110 ttn.v3 - -79 12.5 868.3MHz, SF9BW125, 4/5CR
2026-05-06 01:50:31 14.8125°C 65.0625% 3.33V v255 No position 9109 ttn.v3 - -78 12.5 867.9MHz, SF9BW125, 4/5CR
- -123 -9.25 867.9MHz, SF9BW125, 4/5CR
- -120 -11.75 867.9MHz, SF9BW125, 4/5CR
2026-05-06 01:33:41 14.75°C 65.0625% 3.33V v255 No position 9108 ttn.v3 - -85 11.5 868.1MHz, SF9BW125, 4/5CR
2026-05-06 01:16:51 14.8125°C 65% 3.33V v255 No position 9107 ttn.v3 - -75 11.5 867.7MHz, SF9BW125, 4/5CR
2026-05-06 01:00:01 14.8125°C 65% 3.33V v255 No position 9106 ttn.v3 - -81 9 868.5MHz, SF9BW125, 4/5CR
2026-05-06 00:43:11 14.875°C 65% 3.33V v255 No position 9105 ttn.v3 - -79 9 867.5MHz, SF9BW125, 4/5CR
2026-05-06 00:26:21 14.875°C 65% 3.33V v255 No position 9104 ttn.v3 - -78 10.75 868.3MHz, SF9BW125, 4/5CR
2026-05-06 00:09:31 14.875°C 65% 3.34V v255 No position 9103 ttn.v3 - -85 12 867.3MHz, SF9BW125, 4/5CR
- -124 -10.5 867.3MHz, SF9BW125, 4/5CR
- -120 -11 867.3MHz, SF9BW125, 4/5CR
2026-05-05 23:52:41 14.875°C 65.0625% 3.34V v255 No position 9102 ttn.v3 - -79 13 868.1MHz, SF9BW125, 4/5CR
2026-05-05 23:35:52 14.875°C 65% 3.34V v255 No position 9101 ttn.v3 - -85 12 867.1MHz, SF9BW125, 4/5CR
- -121 -9 867.1MHz, SF9BW125, 4/5CR
- -122 -10 867.1MHz, SF9BW125, 4/5CR
2026-05-05 23:19:02 14.875°C 65.0625% 3.33V v255 No position 9100 ttn.v3 - -81 9 868.5MHz, SF9BW125, 4/5CR
2026-05-05 23:02:12 14.9375°C 64.9375% 3.33V v255 No position 9099 ttn.v3 - -81 13.25 867.9MHz, SF9BW125, 4/5CR
- -121 -12.25 867.9MHz, SF9BW125, 4/5CR
2026-05-05 22:45:22 14.9375°C 65.25% 3.34V v255 No position 9098 ttn.v3 - -81 11.25 868.3MHz, SF9BW125, 4/5CR
2026-05-05 22:28:32 15°C 65.3125% 3.33V v255 No position 9097 ttn.v3 - -84 12.5 867.7MHz, SF9BW125, 4/5CR
- -120 -11.25 867.7MHz, SF9BW125, 4/5CR
2026-05-05 21:54:52 15°C 65.375% 3.33V v255 No position 9095 ttn.v3 - -84 8.5 867.5MHz, SF9BW125, 4/5CR
2026-05-05 21:38:02 15.0625°C 65.4375% 3.33V v255 No position 9094 ttn.v3 - -83 9 868.5MHz, SF9BW125, 4/5CR
2026-05-05 21:21:13 15.0625°C 65.5% 3.33V v255 No position 9093 ttn.v3 - -81 13 867.3MHz, SF9BW125, 4/5CR
- -120 -7.25 867.3MHz, SF9BW125, 4/5CR
- -126 -12.75 867.3MHz, SF9BW125, 4/5CR
2026-05-05 21:04:23 15.125°C 65.6875% 3.34V v255 No position 9092 ttn.v3 - -81 12.25 868.3MHz, SF9BW125, 4/5CR
2026-05-05 20:47:33 15.125°C 65.6875% 3.33V v255 No position 9091 ttn.v3 - -78 11.25 867.1MHz, SF9BW125, 4/5CR
- -120 -13.5 867.1MHz, SF9BW125, 4/5CR
2026-05-05 20:30:43 15.1875°C 65.875% 3.33V v255 No position 9090 ttn.v3 - -85 11.25 868.1MHz, SF9BW125, 4/5CR
2026-05-05 20:13:53 15.1875°C 66% 3.33V v255 No position 9089 ttn.v3 - -85 9.5 867.9MHz, SF9BW125, 4/5CR
- -123 -9.5 867.9MHz, SF9BW125, 4/5CR
2026-05-05 19:57:03 15.25°C 66% 3.33V v255 No position 9088 ttn.v3 - -85 9 868.5MHz, SF9BW125, 4/5CR
2026-05-05 19:40:13 15.25°C 66.0625% 3.34V v255 No position 9087 ttn.v3 - -79 11.5 867.7MHz, SF9BW125, 4/5CR
- -120 -13.25 867.7MHz, SF9BW125, 4/5CR
2026-05-05 19:23:23 15.25°C 66.125% 3.33V v255 No position 9086 ttn.v3 - -79 11.5 868.3MHz, SF9BW125, 4/5CR
2026-05-05 19:06:33 15.25°C 66.25% 3.33V v255 No position 9085 ttn.v3 - -79 9.25 867.5MHz, SF9BW125, 4/5CR
2026-05-05 18:49:43 15.25°C 66.375% 3.33V v255 No position 9084 ttn.v3 - -83 10.5 868.1MHz, SF9BW125, 4/5CR
2026-05-05 18:32:53 15.25°C 66.375% 3.33V v255 No position 9083 ttn.v3 - -83 10.75 867.3MHz, SF9BW125, 4/5CR
2026-05-05 18:16:03 15.25°C 66.3125% 3.33V v255 No position 9082 ttn.v3 - -79 8.75 868.5MHz, SF9BW125, 4/5CR
2026-05-05 17:59:13 15.25°C 66.375% 3.33V v255 No position 9081 ttn.v3 - -76 11.5 867.1MHz, SF9BW125, 4/5CR
- -121 -12 867.1MHz, SF9BW125, 4/5CR
2026-05-05 17:42:23 15.1875°C 66.625% 3.33V v255 No position 9080 ttn.v3 - -83 11.25 868.3MHz, SF9BW125, 4/5CR
2026-05-05 17:25:33 15.25°C 66.75% 3.33V v255 No position 9079 ttn.v3 - -81 11.5 867.9MHz, SF9BW125, 4/5CR
- -120 -7 867.9MHz, SF9BW125, 4/5CR
- -120 -12 867.9MHz, SF9BW125, 4/5CR
2026-05-05 17:08:43 15.1875°C 66.875% 3.33V v255 No position 9078 ttn.v3 - -78 11.5 868.1MHz, SF9BW125, 4/5CR
- -122 -11.75 868.1MHz, SF9BW125, 4/5CR
2026-05-05 16:51:53 15.1875°C 66.9375% 3.33V v255 No position 9077 ttn.v3 - -75 11.5 867.7MHz, SF9BW125, 4/5CR
- -123 -15.25 867.7MHz, SF9BW125, 4/5CR
2026-05-05 16:35:03 15.125°C 67.125% 3.33V v255 No position 9076 ttn.v3 - -79 8.75 868.5MHz, SF9BW125, 4/5CR
2026-05-05 16:18:13 15.125°C 67.1875% 3.34V v255 No position 9075 ttn.v3 - -89 9.25 867.5MHz, SF9BW125, 4/5CR
2026-05-05 16:01:23 15.125°C 67.3125% 3.33V v255 No position 9074 ttn.v3 - -79 11.75 868.3MHz, SF9BW125, 4/5CR
2026-05-05 15:44:33 15.125°C 67.375% 3.33V v255 No position 9073 ttn.v3 - -81 13.25 867.3MHz, SF9BW125, 4/5CR
2026-05-05 15:27:43 15.0625°C 67.4375% 3.33V v255 No position 9072 ttn.v3 - -77 12.5 868.1MHz, SF9BW125, 4/5CR
2026-05-05 15:10:53 15.125°C 67.4375% 3.33V v255 No position 9071 ttn.v3 - -73 13 867.1MHz, SF9BW125, 4/5CR
- -123 -9.5 867.1MHz, SF9BW125, 4/5CR
2026-05-05 14:54:04 15.0625°C 67.4375% 3.33V v255 No position 9070 ttn.v3 - -79 8.25 868.5MHz, SF9BW125, 4/5CR
2026-05-05 14:37:14 15.0625°C 67.5% 3.33V v255 No position 9069 ttn.v3 - -73 11.75 867.9MHz, SF9BW125, 4/5CR
- -119 -9.25 867.9MHz, SF9BW125, 4/5CR
2026-05-05 14:20:24 15.0625°C 67.5% 3.33V v255 No position 9068 ttn.v3 - -79 12.5 868.3MHz, SF9BW125, 4/5CR
2026-05-05 14:03:34 15.0625°C 67.5% 3.33V v255 No position 9067 ttn.v3 - -72 10.75 867.7MHz, SF9BW125, 4/5CR
2026-05-05 13:46:44 15.0625°C 67.5625% 3.33V v255 No position 9066 ttn.v3 - -77 13 868.1MHz, SF9BW125, 4/5CR
- -121 -10.5 868.1MHz, SF9BW125, 4/5CR
2026-05-05 13:29:54 15.0625°C 67.5625% 3.33V v255 No position 9065 ttn.v3 - -71 9 867.5MHz, SF9BW125, 4/5CR
2026-05-05 13:13:04 15.0625°C 67.5625% 3.34V v255 No position 9064 ttn.v3 - -75 9.25 868.5MHz, SF9BW125, 4/5CR
2026-05-05 12:56:14 15.0625°C 67.625% 3.34V v255 No position 9063 ttn.v3 - -73 11 867.3MHz, SF9BW125, 4/5CR
2026-05-05 12:39:24 15.0625°C 67.625% 3.33V v255 No position 9062 ttn.v3 - -75 13 868.3MHz, SF9BW125, 4/5CR
2026-05-05 12:22:34 15.0625°C 67.6875% 3.33V v255 No position 9061 ttn.v3 - -76 11.25 867.1MHz, SF9BW125, 4/5CR
- -123 -11.5 867.1MHz, SF9BW125, 4/5CR
2026-05-05 12:05:44 15.0625°C 67.75% 3.33V v255 No position 9060 ttn.v3 - -83 13.5 868.1MHz, SF9BW125, 4/5CR
2026-05-05 11:48:54 15.0625°C 67.8125% 3.34V v255 No position 9059 ttn.v3 - -77 12.25 867.9MHz, SF9BW125, 4/5CR
2026-05-05 11:32:04 15.0625°C 67.8125% 3.33V v255 No position 9058 ttn.v3 - -75 8.25 868.5MHz, SF9BW125, 4/5CR
2026-05-05 11:15:14 15.0625°C 67.875% 3.33V v255 No position 9057 ttn.v3 - -71 10.75 867.7MHz, SF9BW125, 4/5CR
2026-05-05 10:58:24 15.0625°C 67.9375% 3.34V v255 No position 9056 ttn.v3 - -75 12.75 868.3MHz, SF9BW125, 4/5CR
2026-05-05 10:41:35 15.0625°C 67.9375% 3.33V v255 No position 9055 ttn.v3 - -72 8.75 867.5MHz, SF9BW125, 4/5CR
2026-05-05 10:24:45 15.0625°C 68% 3.33V v255 No position 9054 ttn.v3 - -79 12 868.1MHz, SF9BW125, 4/5CR
- -123 -11 868.1MHz, SF9BW125, 4/5CR
2026-05-05 10:07:55 15.125°C 68.125% 3.33V v255 No position 9053 ttn.v3 - -75 13.25 867.3MHz, SF9BW125, 4/5CR
- -125 -11.5 867.3MHz, SF9BW125, 4/5CR
2026-05-05 09:51:05 15.125°C 68.1875% 3.33V v255 No position 9052 ttn.v3 - -77 9.25 868.5MHz, SF9BW125, 4/5CR
2026-05-05 09:34:15 15.125°C 68.25% 3.34V v255 No position 9051 ttn.v3 - -81 13 867.1MHz, SF9BW125, 4/5CR
- -123 -10.25 867.1MHz, SF9BW125, 4/5CR
2026-05-05 09:17:25 15.125°C 68.3125% 3.33V v255 No position 9050 ttn.v3 - -75 13.25 868.3MHz, SF9BW125, 4/5CR
2026-05-05 09:00:35 15.1875°C 68.4375% 3.33V v255 No position 9049 ttn.v3 - -79 12.5 867.9MHz, SF9BW125, 4/5CR
- -120 -7 867.9MHz, SF9BW125, 4/5CR
2026-05-05 08:43:45 15.1875°C 68.5% 3.33V v255 No position 9048 ttn.v3 - -73 12 868.1MHz, SF9BW125, 4/5CR
2026-05-05 08:26:55 15.1875°C 68.625% 3.33V v255 No position 9047 ttn.v3 - -81 11.75 867.7MHz, SF9BW125, 4/5CR

Message count: 200
Node count: 1

Messages per node

Number of messages in list aboveNodes
200

Statistics per gateway

GatewayNumber of messagesNumber of nodesNodes
2001
561
461
11

Filter by dataset